Regional Weather Roundup
Issued by NWS

Home | Current Version | Previous Version | Text Only | Print | Product List | Glossary On
Versions: 1 2 3 4 5 6 7 8 9 10 11 12 13 14 15 16 17 18 19 20 21 22 23 24 25 26 27 28 29 30 31 32 33 34 35 36 37 38 39 40 41 42 43 44 45 46 47 48 49 50
000
ASUS42 KKEY 031510
RWRKEY

FLORIDA REGIONAL WEATHER ROUNDUP FOR THE FLORIDA KEYS
NATIONAL WEATHER SERVICE KEY WEST FLORIDA
1100 AM EDT WED JUN 03 2015

...SOUTH FLORIDA AND THE KEYS...

CITY           SKY/WX    TMP DP  RH WIND       PRES   REMARKS
FORT MYERS     SUNNY     80  69  69 E6        29.95S
SW REGIONAL AP MOSUNNY   80  68  66 E3        29.95S
NAPLES         SUNNY     81  68  64 VRB5      29.95R
MIAMI          PTSUNNY   82  68  62 VRB6      29.95S
WEST KENDALL   CLOUDY    82  68  62 NE6       29.94S
HOMESTEAD      PTSUNNY   82  71  68 NE12      29.94S
MARATHON       CLOUDY    77  74  90 N7        29.95R
BOCA CHICA NAS PTSUNNY   79  72  79 N5        29.94R
KEY WEST INTL  MOSUNNY   79  72  79 N6        29.94R

...INTERNATIONAL WEATHER...

CITY           SKY/WX    TMP DP  RH WIND       PRES   REMARKS
NASSAU BAHAMAS CLOUDY    79  77  94 VRB6      29.98R
CANCUN MEXICO  MOSUNNY   82  72  69 N13       29.90R
COZUMEL MEXICO MOSUNNY   79  73  83 N12       29.90S

ADJACENT COASTAL WATERS...

STATION/POSITION TIME  SKY/WX   TEMP    WIND        PRES    WAVE
                                AIR SEA DIR/SP/G            HT/PER
                 (UTC)          (F)     (DEG/KT/KT) (MB)    (FT/S)
PULASKI SHOAL LI 1400            79     120/  9/ 11 1013.4R
SAND KEY         1450            76      10/  8/ 10 1013.8R
SOMBRERO KEY     1500            77     350/  5/  7 1014.7R
LONG KEY         1400            76 81   30/  3/  5 1014.6R
MOLASSES REEF    1500            76 81  340/  7/  7 1013.9F
FOWEY ROCKS      NOT AVBL

$$


USA.gov is the U.S. government's official web portal to all federal, state and local government web resources and services.